USA 153

Last updated on Wed Sep 17 2025 00:02:46 GMT+0000 (Coordinated Universal Time)

1 26575U 00065A 25259.55092381 -.00000339 00000+0 00000+0 0 9996 2 26575 11.1500 37.6033 0000784 140.3698 150.5611 1.00268969 30189
UTC large
Height (km)
Speed (km/s)
/
Latitude / Longitude
Inclination (degrees)
Orbital Period (minutes)
Azimuth
Elevation
Range (km)
Doppler Factor

Next 0 passes for location: London (51.5072 / 0.1276)

Sorry there are no passes over London.